Regional Weather Roundup
Issued by NWS Newport/Morehead, NC

Current Version | Previous Version | Graphics & Text | Print | Product List | Glossary On
Versions: 1 2 3 4 5 6 7 8 9 10 11 12 13 14 15 16 17 18 19 20 21 22 23 24 25 26 27 28 29 30 31 32 33 34 35 36 37 38 39 40 41 42 43 44 45 46 47 48 49 50
301 ASUS42 KMHX 191025 RWRMHX WEATHER ROUNDUP FOR EASTERN NORTH CAROLINA NATIONAL WEATHER SERVICE NEWPORT/MOREHEAD CITY NC 500 AM EST THU JAN 19 2017 NOTE: "FAIR" INDICATES FEW OR NO CLOUDS BELOW 12,000 FEET WITH NO SIGNIFICANT WEATHER AND/OR OBSTRUCTIONS TO VISIBILITY NCZ015>017-031-032-045>047-102-103-191100- NORTH COAST CITY SKY/WX TMP DP RH WIND PRES REMARKS EDENTON CLOUDY 44 40 88 N5 30.06R ELIZABETH CITY CLOUDY 43 40 89 N9 30.06R KITTY HAWK NOT AVBL MANTEO CLOUDY 43 43 100 N5 30.05S $$ NCZ045>047-081-094-103-104-191100- CENTRAL COAST CITY SKY/WX TMP DP RH WIND PRES REMARKS FRISCO CLEAR 48 44 86 VRB6 30.03S $$ NCZ095-097-098-100-101-191100- SOUTHERN COAST CITY SKY/WX TMP DP RH WIND PRES REMARKS BEAUFORT CLEAR 44 41 89 N5 30.04R CEDAR ISLAND NOT AVBL JACKSONVILLE CLOUDY 40 40 100 NW5 30.06R PINEY ISLAND SUNNY N/A N/A N/A N6 30.04R WILMINGTON CLEAR 41 41 100 N3 30.05R $$ NCZ011>013-027>030-043-044-078>080-089-090>093-098-191100- COASTAL PLAIN CITY SKY/WX TMP DP RH WIND PRES REMARKS AHOSKIE N/A 40 37 90 CALM 30.09R CLINTON CLOUDY 39 39 98 CALM 30.07S ELIZABETHTOWN CLEAR 40 38 95 CALM 30.06S GOLDSBORO CLEAR 40 39 99 CALM 30.06R GREENVILLE CLEAR 37 37 100 CALM 30.10R FOG HAVELOCK CLEAR 40 39 97 N3 30.06R KENANSVILLE CLEAR 36 34 93 CALM 30.08R KINSTON CLEAR 36 35 97 CALM 30.09R NEW BERN FOG 37 36 96 CALM 30.07R VSB 1/4 RICHLANDS CLOUDY 34 34 100 CALM 30.07R FOG ROCKY MOUNT CLEAR 36 36 100 CALM 30.09R WASHINGTON PTCLDY 37 36 99 N5 N/A WHITEVILLE CLEAR 41 40 95 CALM 30.05S $$ AMZ130-135-150-152-154-156-158-170-250-252-270-ANZ085-086-088-633-658-670-191100- MARINE OBSERVATIONS STATION/POSITION TIME TEMP WIND PRES WAVE SWELL AIR SEA DIR/SP/G HT/PER HT/PER (UTC) (F) (DEG/KT/KT) (MB) (FT/S) (FT/S) CHESAPEAKE LIGHT NOT AVBL 64 E VA BEACH 0950 50 57 10/ 21/ 25 1016.2 6/ 7 3/ 7 DUCK 1000 45 45 350/ 8/ 9 1016.9 2 E DUCK 1000 45 N/A 4/ 7 OREGON INLET 1000 44 50 340/ 4/ 6 1017.3 13E OREGON INLT NOT AVBL HATTERAS CG 1000 48 55 30/ 10/ 15 1016.0 DIAMOND BUOY 0950 52 75 10/ 17/ 21 1016.4 5/ 7 3/ 8 CAPE LOOKOUT 1000 49 360/ 11/ 13 1016.5 BEAUFORT LAB 1000 47 51 10/ 5/ 7 1016.2 30 SE NEW RVR IN 1008 57 62 40/ 10/ 14 1017.1 30 SE NEW RVR IN 0943 62 N/A 4/ 7 27 SE WRIGHTSVLE 1008 59 68 60/ 8/ 12 1016.9 5 SE WRIGHTSVLE NOT AVBL 225 S CAPE HAT 0950 67 71 350/ 12/ 16 1015.1 8/ 8 7/ 8 41 SE CHARLESTON 0950 68 70 60/ 2/ 2 1015.5 2/ 5 2/ 5 $$

USA.gov is the U.S. government's official web portal to all federal, state and local government web resources and services.